Flag for U.S.A. Weather past 2 weeks in Sarasota, Florida, U.S.A.

Now
84 °F

Partly sunny.


Feels Like: 93 °F
Forecast: 75 / 84 °F
Wind: 8 mph from Southeast

Location: Sarasota-Bradenton International Airport

Current Time: Aug 30, 2015 at 12:19:13 PM

Latest Report: Aug 30, 2015 at 11:53 AM


Visibility: 10 mi

Pressure: 30.00 "Hg

Humidity: 77%

Dew point: 76 °F

Location of SarasotaLocation

Historic Weather in Sarasota — Graph

°F

Sarasota temperature yesterday

Maximum temperature yesterday: 91 °F (at 1:53 PM)
Minimum temperature yesterday: 73 °F (at 12:53 AM)
Average temperature yesterday: 79 °F

Past Weeks' High & Low Weather Summary

 TemperatureHumidityPressure
High96 °F (Aug 25, 10:53 AM)100% (Aug 16, 10:53 PM)30.09 "Hg (Aug 16, 10:53 PM)
Low72 °F (Aug 16, 4:53 AM)49% (Aug 23, 2:53 PM)29.85 "Hg (Aug 24, 7:53 PM)
Average82 °F80%29.98 "Hg
* Reported Aug 15 10:53 AM — Aug 30 10:53 AM, Sarasota, Weather by CustomWeather, © 2015

Note: Actual official high and low records may vary slightly from our data, if they occured in-between our weather recording intervals... More about our weather records

Advertising

Sarasota weather history for previous 24 hours

 ConditionsComfort  
Time TempWeatherWind HumidityBarometerVisibility
10:53 AM
Sun, Aug 30
83 °FSunny.9 mph79%30.00 "Hg10 mi
9:53 AM79 °FSunny.7 mph88%29.98 "Hg10 mi
8:53 AM77 °FSunny.7 mph90%29.97 "Hg10 mi
7:53 AM74 °FClear.9 mph97%29.96 "Hg10 mi
6:53 AM74 °FClear.6 mph97%29.95 "Hg10 mi
5:53 AM74 °FClear.6 mph97%29.95 "Hg10 mi
4:53 AM74 °FClear.6 mph94%29.94 "Hg10 mi
3:53 AM75 °FClear.6 mph90%29.93 "Hg10 mi
2:53 AM75 °FClear.8 mph90%29.94 "Hg10 mi
1:53 AM74 °FClear.6 mph91%29.96 "Hg10 mi
12:53 AM74 °FClear.5 mph91%29.97 "Hg10 mi
11:53 PM
Sat, Aug 29
74 °FClear.12 mph91%29.99 "Hg10 mi
10:53 PM74 °FPassing clouds.13 mph94%30.00 "Hg10 mi
9:53 PM75 °FClear.13 mph88%30.00 "Hg10 mi
8:53 PM76 °FSunny.10 mph88%30.01 "Hg10 mi
7:53 PM79 °FSunny.17 mph82%30.02 "Hg10 mi
6:53 PM80 °FSunny.9 mph85%30.00 "Hg10 mi
5:53 PM81 °FSunny.15 mph88%29.98 "Hg10 mi
4:53 PM78 °FLight rain. Broken clouds.12 mph79%30.01 "Hg10 mi
3:53 PM82 °FMostly cloudy.3 mph72%30.00 "Hg10 mi
2:53 PM91 °FPassing clouds.No wind50%30.01 "Hg10 mi
1:53 PM91 °FPartly sunny.7 mph54%30.03 "Hg10 mi
12:53 PM90 °FPassing clouds.7 mph59%30.04 "Hg10 mi
Weather by CustomWeather, © 2015

See weather overviewHow to use our weather pages